Back to catalog

COSMOS 839 DEB

AliveUNKNOWN
NORAD 10443·DEBRIS·🇷🇺 Russia

Launched Jul 8, 1976 from Plesetsk Cosmodrome

Loading…

Next Passes (next 24 hours)

TLE

FreshSource: Space-Track

Epoch: Sep 14, 2026, 10:01 UTC

1 10443U 76067U   26257.41795731  .00000024  00000-0  21177-3 0  9994
2 10443  65.8055 259.4525 0730136 207.6687 308.0847 12.47476655281313

Track COSMOS 839 DEB in real time with AllMySat

Download on the App Store